Baltimore, MD

10:18 PM EST on February 19, 2017 (GMT -0500)
Baltimore-Washington International

Weather History for KBWI - March, 2014

Change the Weather History Date:

Thursday, March 13, 2014

  Actual Average Record
Temperature  
Mean Temperature 26 °F 42 °F  
Max Temperature 33 °F 53 °F 85 °F (1990)
Min Temperature 19 °F 33 °F 12 °F (1888)
Degree Days  
Heating Degree Days 39 23  
Month to date heating degree days 316  
Since 1 July heating degree days 3911  
Cooling Degree Days 0 0  
Month to date cooling degree days 0  
Year to date cooling degree days 0  
Moisture  
Dew Point 4 °F    
Average Humidity 37    
Maximum Humidity 58    
Minimum Humidity 14    
Precipitation  
Precipitation 0.00 in 0.12 in 2.45 in (1993)
Month to date precipitation 1.50  
Year to date precipitation 7.45  
Snow  
Snow 0.00 in 0.10 in 11.30 in (1993)
Month to date snowfall 1.3  
Since 1 July snowfall 19.5  
Snow Depth -    
Sea Level Pressure  
Sea Level Pressure 29.85 in    
Wind  
Wind Speed 21 mph (WNW)    
Max Wind Speed 30 mph    
Max Gust Speed 48 mph    
Visibility 10 miles    
Events      
T = Trace of Precipitation, MM = Missing Value Source: NWS Daily Summary

Daily Weather History Graph

Daily Weather History Graph

Search for Another Location

Airport or City:

Trip Planner

Search our weather history database for the weather conditions in past years. The results will help you decide how hot, cold, wet, or windy it might be!

Date:

Astronomy

Mar. 13, 2014 Rise Set
Actual Time 7:21 AM EDT 7:11 PM EDT
Civil Twilight 6:54 AM EDT 7:38 PM EDT
Nautical Twilight 6:23 AM EDT 8:09 PM EDT
Astronomical Twilight 5:52 AM EDT 8:40 PM EDT
Moon 4:36 PM EDT (3/13) 5:25 AM EDT (3/13)
Length of Visible Light 12h 43m
Length of Day
11h 50m
Waxing Gibbous, 91% of the Moon is Illuminated
Mar 13
Waxing Gibbous
Mar 16
Full
Mar 23
Last Quarter
Mar 30
New
Apr 7
First Quarter

Hourly Weather History & Observations

Time (EDT) Temp. Windchill Dew Point Humidity Pressure Visibility Wind Dir Wind Speed Gust Speed Precip Events Conditions
12:54 AM 30.9 °F 19.1 °F 16.0 °F 54% 29.48 in 10.0 mi NW 18.4 mph 36.8 mph N/A   Partly Cloudy
1:54 AM 28.9 °F 14.0 °F 14.0 °F 54% 29.51 in 10.0 mi WNW 27.6 mph 39.1 mph N/A   Scattered Clouds
2:54 AM 28.0 °F 13.3 °F 12.9 °F 53% 29.56 in 10.0 mi WNW 25.3 mph 34.5 mph N/A   Scattered Clouds
3:54 AM 26.1 °F 9.6 °F 9.0 °F 49% 29.58 in 10.0 mi WNW 29.9 mph 48.3 mph N/A   Partly Cloudy
4:54 AM 25.0 °F 10.6 °F 10.0 °F 53% 29.62 in 10.0 mi WNW 20.7 mph 36.8 mph N/A   Scattered Clouds
5:54 AM 25.0 °F 10.2 °F 12.0 °F 58% 29.67 in 10.0 mi WNW 21.9 mph 31.1 mph N/A   Mostly Cloudy
6:54 AM 21.9 °F 6.5 °F 7.0 °F 53% 29.71 in 10.0 mi WNW 20.7 mph 31.1 mph N/A   Mostly Cloudy
7:54 AM 19.9 °F 1.5 °F 1.9 °F 46% 29.75 in 10.0 mi WNW 28.8 mph 38.0 mph N/A   Partly Cloudy
8:54 AM 21.0 °F 6.6 °F 1.9 °F 44% 29.80 in 10.0 mi WNW 17.3 mph 32.2 mph N/A   Partly Cloudy
9:54 AM 21.9 °F 6.9 °F 1.0 °F 40% 29.84 in 10.0 mi WNW 19.6 mph 29.9 mph N/A   Partly Cloudy
10:54 AM 25.0 °F 10.6 °F -2.0 °F 31% 29.86 in 10.0 mi WNW 20.7 mph 34.5 mph N/A   Partly Cloudy
11:54 AM 26.1 °F 12.0 °F -0.9 °F 31% 29.88 in 10.0 mi WNW 20.7 mph 29.9 mph N/A   Partly Cloudy
12:54 PM 28.0 °F 13.3 °F -0.9 °F 29% 29.90 in 10.0 mi WNW 25.3 mph 34.5 mph N/A   Partly Cloudy
1:54 PM 30.0 °F 16.9 °F -0.0 °F 28% 29.91 in 10.0 mi WNW 21.9 mph 34.5 mph N/A   Partly Cloudy
2:54 PM 33.1 °F 20.9 °F -0.0 °F 24% 29.92 in 10.0 mi NW 21.9 mph 31.1 mph N/A   Partly Cloudy
3:54 PM 33.1 °F 20.9 °F 1.0 °F 26% 29.94 in 10.0 mi WNW 21.9 mph 35.7 mph N/A   Partly Cloudy
4:54 PM 33.1 °F 21.5 °F -0.0 °F 24% 29.96 in 10.0 mi WNW 19.6 mph 34.5 mph N/A   Clear
5:54 PM 32.0 °F 20.1 °F 1.0 °F 27% 29.99 in 10.0 mi WNW 19.6 mph 31.1 mph N/A   Partly Cloudy
6:54 PM 30.0 °F 18.3 °F 1.0 °F 29% 30.04 in 10.0 mi WNW 17.3 mph 31.1 mph N/A   Clear
7:54 PM 30.0 °F 21.1 °F 1.9 °F 30% 30.08 in 10.0 mi WNW 10.4 mph 20.7 mph N/A   Clear
8:54 PM 28.9 °F 19.2 °F 3.9 °F 35% 30.12 in 10.0 mi West 11.5 mph 20.7 mph N/A   Clear
9:54 PM 28.0 °F 18.6 °F 5.0 °F 38% 30.15 in 10.0 mi West 10.4 mph - N/A   Clear
10:54 PM 27.0 °F 19.5 °F 5.0 °F 39% 30.18 in 10.0 mi West 6.9 mph - N/A   Clear
11:54 PM 26.1 °F 20.5 °F 5.0 °F 41% 30.18 in 10.0 mi West 4.6 mph - N/A   Clear